SCP
0 0 0 0 0 0 0 0 0 0 0 -0 -0 0 0 0 0 0 0 -0 0 0 -0 -0 -0 -0 -0 -0 -0 -0 -0 -0 -0 0 -0 -0 -0 -0 -0 -0 -0 -0 -0 -0 -0 -0 -0 -0 -0
0 0 0 0 0 0 -0 0 0 0 0 0 0 0 0 0 0 0 0 0 0 0 0 0 -0 -0 -0 -0 -0 -0 -0 -0 -0 0 -0 -0 -0 -0 -0 -0 -0 -0 0 -0 -0 -0 -0 -0 -0
0 0 0 0 0 0 0 0 0 0 -0 0 0 0 0 0 0 0 0 0 0 0 0 0 -0 -0 -0 -0 -0 -0 0 0 0 0 -0 -0 -0 -0 -0 0 0 0 -0 0 -0 -0 -0 0 0
0 0 0 0 0 0 0 0 0 0 -0 0 0 0 0 0 0 0 0 0 0 0 0 0 0 0 -0 -0 -0 -0 0 0 0 0 0 0 -0 0 -0 0 0 0 -0 -0 0 -0 -0 0 0
0 0 0 0 0 0 0 0 0 0 0 0 0 0 0 0 0 0 0 0 0 0 0 0 0 0 0 -0 -0 -0 0 0 0 0 0 0 0 0 0 0 0 0 0 0 0 0 0 0 0
0 0 0 0 0 0 0 0 0 0 0 0 0 0 0 0 0 0 0 0 0 0 0 0 0 0 0 0 0 0 -0 0 0 0 0 0 0 0 0 0 0 0 0 0 0 0 0 0 0
0 0 0 0 0 -0 0 0 0 0 -0 0 0 0 0 0 0 0 0 0 0 0 0 0 0 0 0 0 0 0 0 0 0 0 0 0 0 0 0 0 0 0 0 0 0 0 0 0 0
0 0 0 0 0 -0 0 0 0 -0 -0 -0 0 0 0 0 0 0 0 0 0 0 0 0 0 0 0 0 0 0 0 0 0 0 0 0 0 0 0 0 0 0 0 0 0 0 0 0 0
0 0 0 0 0 0 0 0 0 0 0 0 0 0 0 0 0 0 0 0 0 0 0 0 0 0 0 0 0 0 0 0 0 0 0 0 0 0 0 0 0 0 0 0 0 0 0 0 0
0 0 0 0 0 0 0 0 0 0 0 0 0 0 0 0 0 0 0 0 0 0 0 0 0 0 0 0 0 0 0 0 0 0 0 0 0 0 0 0 0 0 0 0 0 0 0 0 0
0 0 0 0 0 0 0 0 0 0 0 0 0 0 0 0 0 0 0 0 0 0 0 0 0 0 0 0 0 0 0 0 0 0 0 0 0 0 0 0 0 0 0 0 0 0 0 0 0
0 0 0 0 0 0 0 0 -0 0 0 0 0 0 0 0 0 0 0 0 0 0 0 0 0 0 0 0 0 0 0 0 0 0 0 0 0 0 0 0 0 0 0 0 0 0 0 0 0
0 0 0 0 0 0 0 0 0 -0 0 0 0 0 0 0 0 0 0 0 0 0 0 0 0 0 0 0 0 0 0 0 0 0 0 0 0 0 0 0 0 0 0 0 0 0 0 0 0
0 0 0 0 0 0 0 0 0 0 0 0 0 0 0 0 0 0 0 0 0 0 0 0 0 0 0 0 0 0 0 0 0 0 0 0 0 0 0 0 0 0 0 0 0 0 0 0 0
0 0 0 0 0 0 0 0 0 0 0 0 0 0 0 0 0 0 0 0 0 0 0 0 0 0 0 0 0 0 0 0 0 0 0 0 0 0 0 0 0 0 0 0 0 0 0 0 0
0 0 0 0 0 0 0 0 0 0 0 0 0 0 0 0 0 0 0 0 0 0 0 0 0 0 0 0 0 0 0 0 0 0 0 0 0 0 0 0 0 0 0 0 0 0 0 0 0
0 0 0 0 0 0 0 0 0 0 0 0 0 0 0 0 0 0 0 0 0 0 0 0 0 0 0 0 0 0 0 0 0 0 0 0 0 0 0 0 0 0 0 0 0 0 0 0 0
0 0 0 0 0 0 0 0 0 0 0 0 0 0 0 0 0 0 0 0 0 0 0 0 0 0 0 0 0 0 0 0 0 0 0 0 0 0 0 0 0 0 0 0 0 0 0 0 0
0 0 0 0 0 0 0 0 0 0 0 0 0 0 0 0 0 0 0 0 0 0 0 0 0 0 0 0 0 0 0 0 0 0 0 0 0 0 0 0 0 0 0 0 0 0 0 0 0
0 0 0 0 0 0 0 0 0 0 0 0 0 0 0 0 0 0 0 0 0 0 0 0 0 0 0 0 0 0 0 0 0 0 0 0 0 0 0 0 0 0 0 0 0 0 0 0 0
0 0 0 0 0 0 0 0 0 0 0 0 0 0 0 0 0 0 0 0 0 0 0 0 0 0 0 0 0 0 0 0 0 0 0 0 0 0 0 0 0 0 0 0 0 0 0 0 0
0 0 0 0 0 0 0 0 0 0 0 0 0 0 0 0 0 0 0 0 0 0 0 0 0 0 0 0 0 0 0 0 0 0 0 0 0 0 0 0 0 0 0 0 0 0 0 0 0
0 0 0 0 0 0 0 0 0 0 0 0 0 0 0 0 0 0 0 0 0 0 0 0 0 0 0 0 0 0 0 0 0 0 0 0 0 0 0 0 0 0 0 0 0 0 0 0 0
0 0 0 0 0 0 0 0 0 0 0 0 0 0 0 0 0 0 0 0 0 0 0 0 0 0 0 0 0 0 0 0 0 0 0 0 0 0 0 0 0 0 0 0 0 0 0 0 0
0 0 0 0 0 0 0 0 0 0 0 0 0 0 0 0 0 0 0 0 0 0 0 0 0 0 0 0 0 0 0 0 0 0 0 0 0 0 0 0 0 0 0 0 0 0 0 0 0
0 0 0 0 0 0 0 0 0 0 0 0 0 0 0 0 0 0 0 0 0 0 0 0 0 0 0 0 0 0 0 0 0 0 0 0 0 0 0 0 0 0 0 0 0 0 0 0 0
0 0 0 0 0 0 0 0 0 0 0 0 0 0 0 0 0 0 0 0 0 0 0 0 0 0 0 0 0 0 0 0 0 0 0 0 0 0 0 0 0 0 0 0 0 0 0 0 0
-0 0 0 0 0 0 0 0 0 0 0 0 0 0 0 0 0 0 0 0 0 0 0 0 0 0 0 0 0 0 0 0 0 0 0 0 0 0 0 0 0 0 0 0 0 0 0 0 0
-0 -0 0 0 0 0 0 0 0 0 0 0 0 0 0 0 0 0 0 0 0 0 0 0 0 0 0 0 0 0 0 0 0 0 0 0 0 0 0 0 0 0 0 0 0 0 0 0 0
-0 -0 -0 0 0 0 0 0 0 0 0 0 -0 -0 0 0 0 0 0 0 0 0 0 0 0 0 0 0 0 0 0 0 0 0 0 0 0 0 0 0 0 0 0 0 0 0 0 0 0
Wind_Speed_500mb
18 11 7 7 4 6 8 13 11 27 18 6 10 8 5 10 5 7 9 15 13 20 29 44 46 49 49 47 44 41 38 37 36 34 33 32 29 27 25 24 23 22 21 20 17 15 13 13 11
22 9 3 5 6 5 10 15 26 23 35 4 6 3 10 12 8 10 19 18 11 16 30 42 45 49 51 49 47 45 43 41 38 37 34 32 29 27 25 23 22 22 20 18 14 16 16 11 6
13 9 4 7 8 21 10 18 29 32 18 10 2 3 5 5 5 9 11 19 18 19 27 40 43 48 53 51 49 49 46 43 39 37 34 32 29 27 25 23 23 22 20 20 23 18 9 7 6
5 6 9 5 27 21 20 22 23 17 29 11 14 5 13 24 18 14 9 14 16 23 28 40 46 49 53 53 52 51 49 46 41 37 34 31 29 28 27 28 26 25 27 26 24 17 16 16 14
5 7 6 10 39 14 18 47 49 40 33 22 20 13 18 23 24 25 22 21 22 23 32 36 49 52 55 55 53 52 52 50 45 39 34 34 32 35 34 33 30 30 29 27 25 24 22 20 20
6 10 8 19 40 31 29 45 51 43 58 63 17 18 36 35 43 39 32 33 32 31 31 36 47 54 58 57 55 53 55 52 47 42 41 46 40 39 36 34 34 33 31 31 29 26 26 25 23
9 6 17 24 38 41 28 46 23 22 23 41 58 19 42 43 44 48 50 42 37 39 38 40 45 56 60 59 58 55 52 53 50 49 51 49 47 38 38 38 36 35 34 34 31 30 28 25 21
14 5 10 17 35 55 38 44 55 53 27 52 42 11 27 50 36 50 47 44 41 43 45 46 48 52 64 65 63 60 55 54 55 56 55 50 44 37 38 39 39 39 38 35 33 30 28 23 20
26 9 23 36 33 50 42 28 55 61 42 38 42 44 43 31 35 44 40 39 47 50 52 52 54 56 61 71 70 64 63 62 58 59 55 56 46 40 41 40 41 42 39 37 33 31 28 25 23
16 13 25 17 19 29 39 36 38 27 41 38 45 36 26 19 25 39 44 51 56 61 60 56 58 60 63 74 75 73 71 65 67 66 63 63 49 45 44 44 45 44 40 38 34 33 31 28 26
20 29 26 29 46 38 31 50 48 23 24 36 40 46 35 41 43 49 57 63 64 63 65 63 62 65 63 77 82 81 79 77 75 70 69 67 56 52 50 48 47 45 42 39 38 36 34 30 27
19 25 43 41 54 44 27 60 42 42 53 67 75 73 63 70 58 55 67 71 66 68 68 71 70 72 67 75 85 87 87 83 81 76 73 72 63 60 54 48 46 45 43 41 41 39 37 33 30
29 23 47 62 64 64 62 48 57 73 61 68 76 92 98 88 83 64 59 63 73 70 73 75 78 79 73 76 81 87 86 87 85 81 79 77 68 63 55 46 47 46 46 44 42 42 38 34 30
15 21 38 41 40 40 25 41 45 82 65 58 65 79 90 100 101 82 68 61 70 73 75 74 81 81 82 79 84 89 89 90 88 86 82 78 70 65 57 50 51 51 49 46 44 40 36 34 32
35 29 36 33 26 15 19 49 56 98 71 82 76 89 96 98 92 94 75 76 73 75 79 81 80 85 86 84 86 93 97 97 94 91 85 81 73 68 60 56 55 53 50 48 46 42 39 36 34
14 11 10 5 27 21 30 65 5 4 30 54 68 81 90 92 88 84 85 84 77 82 82 84 83 90 89 86 87 94 102 102 99 96 89 85 77 70 64 61 59 56 54 50 46 43 40 39 36
9 30 33 44 29 15 28 53 30 71 66 62 41 40 61 72 76 77 81 74 83 91 92 91 90 93 94 88 88 92 102 103 101 99 92 87 79 72 67 65 62 59 55 52 48 46 42 39 36
16 17 29 34 13 36 33 57 45 25 35 46 61 63 71 70 72 60 65 66 85 91 96 99 98 99 97 92 90 93 100 104 105 102 91 85 78 74 70 68 65 63 58 53 52 48 46 42 38
40 42 46 43 12 23 30 50 54 35 49 51 63 68 81 87 84 82 80 62 66 80 94 98 99 104 104 104 102 102 104 108 107 101 91 87 84 79 72 71 71 68 61 58 53 52 49 46 42
46 54 59 60 39 22 32 50 60 33 24 53 60 59 74 85 95 98 99 98 98 88 86 97 101 106 112 112 107 103 101 105 104 100 96 92 86 79 77 77 76 71 66 62 60 57 56 50 47
53 45 52 48 44 36 41 42 51 36 23 52 60 69 68 84 100 87 94 96 94 94 98 97 100 104 111 115 110 107 98 99 102 103 100 95 86 83 83 81 78 73 68 66 63 60 59 54 54
58 48 55 53 38 38 16 41 53 46 43 30 42 63 87 77 93 99 95 90 90 90 87 91 96 105 110 118 118 114 114 115 117 113 105 100 93 90 89 86 82 76 71 67 65 64 60 58 57
48 29 29 39 49 48 51 25 46 34 31 37 40 53 44 27 27 35 31 47 62 73 80 86 95 107 113 120 119 115 115 110 102 107 109 106 101 98 96 90 86 83 80 74 72 71 66 62 60
42 42 36 39 26 35 55 34 34 44 35 33 34 60 17 29 29 27 23 14 13 14 48 61 79 103 112 118 118 118 115 108 106 100 108 112 108 102 98 92 89 85 80 76 75 69 64 61 58
59 47 13 10 13 22 21 20 34 40 19 30 22 26 35 38 40 32 24 23 15 6 5 32 65 93 103 109 112 112 110 106 108 107 105 111 113 111 103 99 94 91 87 83 75 72 68 65 61
64 27 18 24 16 8 11 12 11 44 27 44 39 33 44 49 46 44 41 30 25 16 5 14 34 64 78 90 99 103 103 101 101 101 103 104 110 111 107 102 98 93 90 86 79 75 71 65 61
26 35 48 16 8 7 6 10 20 30 32 36 31 42 46 51 55 50 42 39 34 29 23 6 15 23 48 66 80 91 95 95 96 95 95 97 99 103 107 103 100 98 95 88 81 78 71 66 64
17 36 18 12 5 11 7 7 6 29 27 29 35 34 48 54 60 56 48 44 35 29 26 20 9 17 25 35 54 68 77 82 87 88 90 91 92 94 99 102 104 101 96 90 85 80 72 70 66
13 25 18 14 15 10 4 10 23 29 26 27 28 46 52 55 60 60 49 44 39 30 24 24 20 12 14 22 33 44 54 66 75 80 82 85 84 87 91 93 103 103 100 97 93 85 78 74 69
6 20 21 11 20 17 12 5 28 29 27 27 33 45 53 56 58 59 52 47 48 45 35 27 22 17 16 13 17 36 37 46 63 70 73 75 78 79 81 84 91 102 104 100 96 88 82 77 76
Wind_Direction_500mb
307 304 293 311 35 89 244 260 237 288 317 142 80 64 174 237 224 225 150 171 154 169 182 188 190 190 191 189 185 183 183 182 179 175 170 167 165 162 160 159 159 157 155 154 154 154 149 138 134
297 294 275 269 130 241 259 235 261 271 283 145 90 38 352 287 294 176 158 183 191 190 186 191 193 193 195 194 191 191 191 189 186 183 180 178 176 174 174 174 174 172 172 173 177 161 159 164 176
301 240 236 161 203 227 231 230 252 275 279 101 120 196 213 217 48 168 178 198 214 213 199 198 198 195 197 199 197 196 196 195 193 189 187 187 189 186 188 190 187 189 185 185 173 174 197 248 255
160 176 254 200 237 232 229 261 263 279 291 270 178 204 235 248 262 271 276 210 230 225 215 207 203 202 201 200 201 200 200 199 198 195 193 194 201 200 200 205 195 186 178 181 193 215 240 260 269
229 223 237 224 248 253 252 258 277 292 285 241 223 227 208 237 248 256 260 254 243 239 226 216 208 206 206 205 204 203 202 202 200 196 197 191 191 195 190 198 197 202 208 218 221 237 250 260 266
205 240 232 230 255 246 245 253 260 266 272 275 210 228 222 232 248 256 246 244 245 251 238 222 215 211 210 210 210 209 204 203 201 197 194 197 203 202 202 207 209 213 218 227 234 244 254 261 260
215 238 233 242 265 263 254 253 252 250 285 266 270 231 242 236 243 250 249 232 227 238 230 226 217 215 215 215 213 214 209 204 202 199 201 207 217 211 206 209 214 220 227 234 240 246 252 253 243
220 244 249 246 252 267 264 263 270 281 274 288 278 225 252 246 250 237 229 227 223 229 230 227 224 217 214 215 215 214 214 206 206 205 205 210 221 211 211 216 221 226 231 236 239 241 240 227 217
217 232 240 239 235 260 274 281 276 268 274 288 282 266 280 255 240 209 215 210 203 218 229 226 228 223 220 217 214 211 213 212 211 211 209 215 217 216 219 223 226 229 232 234 234 231 220 209 201
191 210 226 237 248 270 277 279 301 293 291 290 290 282 262 223 222 213 213 221 211 215 224 230 231 230 223 218 213 210 210 211 212 214 212 219 220 222 226 226 228 231 231 230 222 214 209 205 207
216 233 236 258 259 268 284 283 285 283 280 277 279 279 279 257 237 236 241 244 243 225 221 230 237 233 229 219 213 211 211 212 211 214 215 218 225 224 228 230 230 230 228 219 210 208 208 210 212
263 236 233 250 258 268 273 290 279 254 259 272 274 276 275 273 265 253 251 249 237 221 224 232 235 238 235 227 216 213 212 211 215 216 216 221 227 228 230 232 231 229 222 213 208 209 210 210 213
242 244 246 252 259 262 270 267 271 271 272 269 268 264 265 264 266 261 249 251 247 228 225 230 234 237 236 233 223 219 218 216 219 219 218 224 231 231 234 231 226 224 217 214 213 213 213 212 212
260 269 259 259 261 269 258 271 273 272 268 258 260 262 264 261 258 262 248 245 241 240 236 238 236 236 237 236 224 220 220 218 222 222 222 227 233 234 235 231 226 220 216 217 217 218 216 214 211
286 282 273 261 257 245 272 275 249 259 266 259 253 258 263 262 260 252 253 245 237 240 241 238 240 238 235 237 229 223 222 224 223 225 224 229 233 234 235 232 226 220 216 216 216 217 215 215 212
298 286 276 198 208 241 181 257 246 234 246 255 253 255 259 259 259 257 250 249 243 243 239 238 240 239 236 235 233 225 224 224 225 226 230 232 233 231 233 232 225 218 216 216 217 217 216 214 213
201 263 262 271 224 233 180 253 252 246 252 258 247 265 266 264 261 258 250 244 246 247 245 239 238 241 237 234 232 227 226 226 228 229 233 232 228 228 230 229 222 218 217 218 216 215 216 218 215
226 231 249 247 214 211 222 255 258 225 225 245 260 266 274 271 268 269 262 255 245 242 245 243 238 238 237 231 226 226 227 228 229 229 231 227 225 228 226 222 218 218 217 218 217 214 215 215 215
264 268 271 262 260 235 234 249 261 250 243 256 257 261 264 268 271 269 262 253 247 247 240 238 233 231 230 225 223 226 223 225 228 228 229 225 225 225 223 218 215 217 217 218 218 215 214 213 212
255 255 258 269 270 265 273 270 275 256 234 235 245 240 249 261 268 268 263 258 251 247 244 235 236 229 228 229 230 231 228 225 227 229 226 225 224 224 222 218 216 216 214 212 215 217 215 210 212
265 254 259 262 280 258 269 272 273 266 258 246 248 254 255 257 263 263 258 255 253 246 245 239 233 233 227 228 226 223 222 224 224 226 226 224 223 223 221 219 217 217 216 216 217 217 217 218 212
266 275 288 288 285 275 212 269 264 270 266 255 250 258 260 261 267 267 261 254 250 246 242 242 237 233 229 224 225 225 226 222 225 227 225 223 222 222 221 220 218 218 217 217 219 219 219 218 218
272 262 274 279 276 278 263 260 273 266 270 260 253 257 272 303 295 267 264 254 251 250 245 243 240 234 227 225 227 228 226 230 228 224 224 222 221 220 220 218 216 216 216 217 217 216 215 217 217
308 274 291 282 256 244 250 237 251 261 261 259 274 270 73 66 77 75 75 101 177 221 235 235 239 229 226 225 226 227 228 227 222 222 222 221 221 220 219 219 217 218 219 219 218 217 218 220 219
345 333 259 236 209 248 226 248 242 272 246 256 287 56 51 53 54 48 37 31 30 19 218 220 229 224 220 223 224 227 228 228 228 227 225 222 221 220 220 218 215 218 219 219 218 217 217 218 219
303 277 271 257 228 246 192 237 238 246 270 253 82 66 48 43 39 39 35 29 27 23 9 200 215 223 221 223 225 227 228 227 230 231 230 229 228 225 223 220 218 218 218 218 216 218 219 218 219
330 335 294 275 260 282 192 293 300 28 53 49 53 46 42 38 36 32 31 33 33 37 42 59 195 216 232 231 231 229 229 229 231 233 235 236 235 232 228 222 220 219 219 218 217 218 218 217 218
325 347 346 323 274 216 204 198 268 23 36 38 37 35 35 33 32 31 30 26 26 32 41 60 119 197 217 234 238 238 236 234 236 237 237 238 237 236 233 227 224 223 220 219 218 218 217 219 218
20 12 10 296 326 334 337 88 36 40 41 46 42 39 34 30 27 25 26 26 24 25 35 48 72 115 194 218 226 239 239 238 238 238 239 240 241 238 237 233 228 225 222 219 218 216 216 218 218
45 15 14 343 328 308 268 86 60 31 30 48 47 41 36 30 26 24 27 28 28 26 30 35 49 71 87 127 184 220 233 237 235 237 239 241 241 240 240 237 232 228 225 222 220 218 217 218 218
Wind_Speed_850mb
18 11 7 7 4 6 8 13 11 27 18 6 10 8 5 10 5 7 9 15 13 20 29 44 46 49 49 47 44 41 38 37 36 34 33 32 29 27 25 24 23 22 21 20 17 15 13 13 11
22 9 3 5 6 5 10 15 26 23 35 4 6 3 10 12 8 10 19 18 11 16 30 42 45 49 51 49 47 45 43 41 38 37 34 32 29 27 25 23 22 22 20 18 14 16 16 11 6
13 9 4 7 8 21 10 18 29 32 18 10 2 3 5 5 5 9 11 19 18 19 27 40 43 48 53 51 49 49 46 43 39 37 34 32 29 27 25 23 23 22 20 20 23 18 9 7 6
5 6 9 5 27 21 20 22 23 17 29 11 14 5 13 24 18 14 9 14 16 23 28 40 46 49 53 53 52 51 49 46 41 37 34 31 29 28 27 28 26 25 27 26 24 17 16 16 14
5 7 6 10 39 14 18 47 49 40 33 22 20 13 18 23 24 25 22 21 22 23 32 36 49 52 55 55 53 52 52 50 45 39 34 34 32 35 34 33 30 30 29 27 25 24 22 20 20
6 10 8 19 40 31 29 45 51 43 58 63 17 18 36 35 43 39 32 33 32 31 31 36 47 54 58 57 55 53 55 52 47 42 41 46 40 39 36 34 34 33 31 31 29 26 26 25 23
9 6 17 24 38 41 28 46 23 22 23 41 58 19 42 43 44 48 50 42 37 39 38 40 45 56 60 59 58 55 52 53 50 49 51 49 47 38 38 38 36 35 34 34 31 30 28 25 21
14 5 10 17 35 55 38 44 55 53 27 52 42 11 27 50 36 50 47 44 41 43 45 46 48 52 64 65 63 60 55 54 55 56 55 50 44 37 38 39 39 39 38 35 33 30 28 23 20
26 9 23 36 33 50 42 28 55 61 42 38 42 44 43 31 35 44 40 39 47 50 52 52 54 56 61 71 70 64 63 62 58 59 55 56 46 40 41 40 41 42 39 37 33 31 28 25 23
16 13 25 17 19 29 39 36 38 27 41 38 45 36 26 19 25 39 44 51 56 61 60 56 58 60 63 74 75 73 71 65 67 66 63 63 49 45 44 44 45 44 40 38 34 33 31 28 26
20 29 26 29 46 38 31 50 48 23 24 36 40 46 35 41 43 49 57 63 64 63 65 63 62 65 63 77 82 81 79 77 75 70 69 67 56 52 50 48 47 45 42 39 38 36 34 30 27
19 25 43 41 54 44 27 60 42 42 53 67 75 73 63 70 58 55 67 71 66 68 68 71 70 72 67 75 85 87 87 83 81 76 73 72 63 60 54 48 46 45 43 41 41 39 37 33 30
29 23 47 62 64 64 62 48 57 73 61 68 76 92 98 88 83 64 59 63 73 70 73 75 78 79 73 76 81 87 86 87 85 81 79 77 68 63 55 46 47 46 46 44 42 42 38 34 30
15 21 38 41 40 40 25 41 45 82 65 58 65 79 90 100 101 82 68 61 70 73 75 74 81 81 82 79 84 89 89 90 88 86 82 78 70 65 57 50 51 51 49 46 44 40 36 34 32
35 29 36 33 26 15 19 49 56 98 71 82 76 89 96 98 92 94 75 76 73 75 79 81 80 85 86 84 86 93 97 97 94 91 85 81 73 68 60 56 55 53 50 48 46 42 39 36 34
14 11 10 5 27 21 30 65 5 4 30 54 68 81 90 92 88 84 85 84 77 82 82 84 83 90 89 86 87 94 102 102 99 96 89 85 77 70 64 61 59 56 54 50 46 43 40 39 36
9 30 33 44 29 15 28 53 30 71 66 62 41 40 61 72 76 77 81 74 83 91 92 91 90 93 94 88 88 92 102 103 101 99 92 87 79 72 67 65 62 59 55 52 48 46 42 39 36
16 17 29 34 13 36 33 57 45 25 35 46 61 63 71 70 72 60 65 66 85 91 96 99 98 99 97 92 90 93 100 104 105 102 91 85 78 74 70 68 65 63 58 53 52 48 46 42 38
40 42 46 43 12 23 30 50 54 35 49 51 63 68 81 87 84 82 80 62 66 80 94 98 99 104 104 104 102 102 104 108 107 101 91 87 84 79 72 71 71 68 61 58 53 52 49 46 42
46 54 59 60 39 22 32 50 60 33 24 53 60 59 74 85 95 98 99 98 98 88 86 97 101 106 112 112 107 103 101 105 104 100 96 92 86 79 77 77 76 71 66 62 60 57 56 50 47
53 45 52 48 44 36 41 42 51 36 23 52 60 69 68 84 100 87 94 96 94 94 98 97 100 104 111 115 110 107 98 99 102 103 100 95 86 83 83 81 78 73 68 66 63 60 59 54 54
58 48 55 53 38 38 16 41 53 46 43 30 42 63 87 77 93 99 95 90 90 90 87 91 96 105 110 118 118 114 114 115 117 113 105 100 93 90 89 86 82 76 71 67 65 64 60 58 57
48 29 29 39 49 48 51 25 46 34 31 37 40 53 44 27 27 35 31 47 62 73 80 86 95 107 113 120 119 115 115 110 102 107 109 106 101 98 96 90 86 83 80 74 72 71 66 62 60
42 42 36 39 26 35 55 34 34 44 35 33 34 60 17 29 29 27 23 14 13 14 48 61 79 103 112 118 118 118 115 108 106 100 108 112 108 102 98 92 89 85 80 76 75 69 64 61 58
59 47 13 10 13 22 21 20 34 40 19 30 22 26 35 38 40 32 24 23 15 6 5 32 65 93 103 109 112 112 110 106 108 107 105 111 113 111 103 99 94 91 87 83 75 72 68 65 61
64 27 18 24 16 8 11 12 11 44 27 44 39 33 44 49 46 44 41 30 25 16 5 14 34 64 78 90 99 103 103 101 101 101 103 104 110 111 107 102 98 93 90 86 79 75 71 65 61
26 35 48 16 8 7 6 10 20 30 32 36 31 42 46 51 55 50 42 39 34 29 23 6 15 23 48 66 80 91 95 95 96 95 95 97 99 103 107 103 100 98 95 88 81 78 71 66 64
17 36 18 12 5 11 7 7 6 29 27 29 35 34 48 54 60 56 48 44 35 29 26 20 9 17 25 35 54 68 77 82 87 88 90 91 92 94 99 102 104 101 96 90 85 80 72 70 66
13 25 18 14 15 10 4 10 23 29 26 27 28 46 52 55 60 60 49 44 39 30 24 24 20 12 14 22 33 44 54 66 75 80 82 85 84 87 91 93 103 103 100 97 93 85 78 74 69
6 20 21 11 20 17 12 5 28 29 27 27 33 45 53 56 58 59 52 47 48 45 35 27 22 17 16 13 17 36 37 46 63 70 73 75 78 79 81 84 91 102 104 100 96 88 82 77 76
Wind_Direction_850mb
307 304 293 311 35 89 244 260 237 288 317 142 80 64 174 237 224 225 150 171 154 169 182 188 190 190 191 189 185 183 183 182 179 175 170 167 165 162 160 159 159 157 155 154 154 154 149 138 134
297 294 275 269 130 241 259 235 261 271 283 145 90 38 352 287 294 176 158 183 191 190 186 191 193 193 195 194 191 191 191 189 186 183 180 178 176 174 174 174 174 172 172 173 177 161 159 164 176
301 240 236 161 203 227 231 230 252 275 279 101 120 196 213 217 48 168 178 198 214 213 199 198 198 195 197 199 197 196 196 195 193 189 187 187 189 186 188 190 187 189 185 185 173 174 197 248 255
160 176 254 200 237 232 229 261 263 279 291 270 178 204 235 248 262 271 276 210 230 225 215 207 203 202 201 200 201 200 200 199 198 195 193 194 201 200 200 205 195 186 178 181 193 215 240 260 269
229 223 237 224 248 253 252 258 277 292 285 241 223 227 208 237 248 256 260 254 243 239 226 216 208 206 206 205 204 203 202 202 200 196 197 191 191 195 190 198 197 202 208 218 221 237 250 260 266
205 240 232 230 255 246 245 253 260 266 272 275 210 228 222 232 248 256 246 244 245 251 238 222 215 211 210 210 210 209 204 203 201 197 194 197 203 202 202 207 209 213 218 227 234 244 254 261 260
215 238 233 242 265 263 254 253 252 250 285 266 270 231 242 236 243 250 249 232 227 238 230 226 217 215 215 215 213 214 209 204 202 199 201 207 217 211 206 209 214 220 227 234 240 246 252 253 243
220 244 249 246 252 267 264 263 270 281 274 288 278 225 252 246 250 237 229 227 223 229 230 227 224 217 214 215 215 214 214 206 206 205 205 210 221 211 211 216 221 226 231 236 239 241 240 227 217
217 232 240 239 235 260 274 281 276 268 274 288 282 266 280 255 240 209 215 210 203 218 229 226 228 223 220 217 214 211 213 212 211 211 209 215 217 216 219 223 226 229 232 234 234 231 220 209 201
191 210 226 237 248 270 277 279 301 293 291 290 290 282 262 223 222 213 213 221 211 215 224 230 231 230 223 218 213 210 210 211 212 214 212 219 220 222 226 226 228 231 231 230 222 214 209 205 207
216 233 236 258 259 268 284 283 285 283 280 277 279 279 279 257 237 236 241 244 243 225 221 230 237 233 229 219 213 211 211 212 211 214 215 218 225 224 228 230 230 230 228 219 210 208 208 210 212
263 236 233 250 258 268 273 290 279 254 259 272 274 276 275 273 265 253 251 249 237 221 224 232 235 238 235 227 216 213 212 211 215 216 216 221 227 228 230 232 231 229 222 213 208 209 210 210 213
242 244 246 252 259 262 270 267 271 271 272 269 268 264 265 264 266 261 249 251 247 228 225 230 234 237 236 233 223 219 218 216 219 219 218 224 231 231 234 231 226 224 217 214 213 213 213 212 212
260 269 259 259 261 269 258 271 273 272 268 258 260 262 264 261 258 262 248 245 241 240 236 238 236 236 237 236 224 220 220 218 222 222 222 227 233 234 235 231 226 220 216 217 217 218 216 214 211
286 282 273 261 257 245 272 275 249 259 266 259 253 258 263 262 260 252 253 245 237 240 241 238 240 238 235 237 229 223 222 224 223 225 224 229 233 234 235 232 226 220 216 216 216 217 215 215 212
298 286 276 198 208 241 181 257 246 234 246 255 253 255 259 259 259 257 250 249 243 243 239 238 240 239 236 235 233 225 224 224 225 226 230 232 233 231 233 232 225 218 216 216 217 217 216 214 213
201 263 262 271 224 233 180 253 252 246 252 258 247 265 266 264 261 258 250 244 246 247 245 239 238 241 237 234 232 227 226 226 228 229 233 232 228 228 230 229 222 218 217 218 216 215 216 218 215
226 231 249 247 214 211 222 255 258 225 225 245 260 266 274 271 268 269 262 255 245 242 245 243 238 238 237 231 226 226 227 228 229 229 231 227 225 228 226 222 218 218 217 218 217 214 215 215 215
264 268 271 262 260 235 234 249 261 250 243 256 257 261 264 268 271 269 262 253 247 247 240 238 233 231 230 225 223 226 223 225 228 228 229 225 225 225 223 218 215 217 217 218 218 215 214 213 212
255 255 258 269 270 265 273 270 275 256 234 235 245 240 249 261 268 268 263 258 251 247 244 235 236 229 228 229 230 231 228 225 227 229 226 225 224 224 222 218 216 216 214 212 215 217 215 210 212
265 254 259 262 280 258 269 272 273 266 258 246 248 254 255 257 263 263 258 255 253 246 245 239 233 233 227 228 226 223 222 224 224 226 226 224 223 223 221 219 217 217 216 216 217 217 217 218 212
266 275 288 288 285 275 212 269 264 270 266 255 250 258 260 261 267 267 261 254 250 246 242 242 237 233 229 224 225 225 226 222 225 227 225 223 222 222 221 220 218 218 217 217 219 219 219 218 218
272 262 274 279 276 278 263 260 273 266 270 260 253 257 272 303 295 267 264 254 251 250 245 243 240 234 227 225 227 228 226 230 228 224 224 222 221 220 220 218 216 216 216 217 217 216 215 217 217
308 274 291 282 256 244 250 237 251 261 261 259 274 270 73 66 77 75 75 101 177 221 235 235 239 229 226 225 226 227 228 227 222 222 222 221 221 220 219 219 217 218 219 219 218 217 218 220 219
345 333 259 236 209 248 226 248 242 272 246 256 287 56 51 53 54 48 37 31 30 19 218 220 229 224 220 223 224 227 228 228 228 227 225 222 221 220 220 218 215 218 219 219 218 217 217 218 219
303 277 271 257 228 246 192 237 238 246 270 253 82 66 48 43 39 39 35 29 27 23 9 200 215 223 221 223 225 227 228 227 230 231 230 229 228 225 223 220 218 218 218 218 216 218 219 218 219
330 335 294 275 260 282 192 293 300 28 53 49 53 46 42 38 36 32 31 33 33 37 42 59 195 216 232 231 231 229 229 229 231 233 235 236 235 232 228 222 220 219 219 218 217 218 218 217 218
325 347 346 323 274 216 204 198 268 23 36 38 37 35 35 33 32 31 30 26 26 32 41 60 119 197 217 234 238 238 236 234 236 237 237 238 237 236 233 227 224 223 220 219 218 218 217 219 218
20 12 10 296 326 334 337 88 36 40 41 46 42 39 34 30 27 25 26 26 24 25 35 48 72 115 194 218 226 239 239 238 238 238 239 240 241 238 237 233 228 225 222 219 218 216 216 218 218
45 15 14 343 328 308 268 86 60 31 30 48 47 41 36 30 26 24 27 28 28 26 30 35 49 71 87 127 184 220 233 237 235 237 239 241 241 240 240 237 232 228 225 222 220 218 217 218 218